Location: ???????
(54.9996°N, 37.9529°E)
Time: 10:29:39
(UTC+00:00)

Gbstr 26 Del rocket - Pass Details

Date: 14 April 2024
Orbit: 491 x 1240 km, 51.8° (Epoch: 19 May)

Event Time Altitude Azimuth Distance (km) Brightness Sun altitude
Exits shadow 00:31:27 24° 200° (SSW) 1,177 4.0 -15.0°
Maximum altitude 00:33:04 33° 158° (SSE) 925 3.8 -14.9°
Drops below altitude 10° 00:36:31 10° 93° (E) 1,722 6.0 -14.5°
Sets 00:38:44 0° 84° (E) 2,579 7.2 -14.3°
